FW2073 Weather Reports


time (UTC)temp
C
wind
direction
speed
KPH
gust
KPH
rain 1hr
cm
rain 24hr
cm
rain mn
cm
humidity
%
barometer
mb
20260507224531 10 122 0.0 16.1 0.00 0.25 0.00 47 1006.9
20260507223047 9 84 0.0 8.0 0.00 0.28 0.00 48 1006.9
20260507221522 10 104 6.4 19.3 0.00 0.28 0.00 47 1006.8
20260507220021 10 127 0.0 9.7 0.00 0.28 0.00 49 1006.8
20260507214522 10 117 0.0 16.1 0.00 0.28 0.00 49 1006.7
20260507213154 10 96 0.0 8.0 0.00 0.51 0.00 51 1006.7
20260507211518 10 96 0.0 16.1 0.00 0.51 0.00 49 1006.4
20260507210019 10 86 0.0 19.3 0.00 0.51 0.00 49 1006.4
20260507204516 11 68 0.0 14.5 0.00 0.51 0.00 49 1006.3
20260507203030 11 141 1.6 27.4 0.00 0.61 0.00 47 1006.2
20260507201513 11 83 3.2 25.7 0.00 0.61 0.00 47 1006.3
20260507200024 11 103 4.8 24.1 0.00 0.61 0.00 49 1006.0
20260507194511 11 114 0.0 25.7 0.00 0.61 0.00 47 1006.1
20260507193033 11 107 9.7 35.4 0.00 0.66 0.00 45 1006.0
20260507191508 12 117 11.3 35.4 0.00 0.66 0.00 45 1006.0
20260507190006 11 82 6.4 38.6 0.00 0.66 0.00 45 1006.1
20260507184506 11 155 1.6 35.4 0.00 0.66 0.00 48 1006.1
20260507183006 11 63 16.1 41.8 0.00 0.91 0.00 45 1006.2
20260507181605 11 128 6.4 29.0 0.00 0.91 0.00 47 1006.3
20260507180057 11 93 11.3 29.0 0.00 0.91 0.00 49 1006.2
20260507174559 11 143 6.4 30.6 0.00 0.91 0.00 49 1006.3
20260507173058 11 86 1.6 30.6 0.00 1.27 0.00 52 1006.3
20260507171600 11 44 4.8 25.7 0.00 1.27 0.00 53 1006.7
20260507170050 11 113 3.2 27.4 0.00 1.27 0.00 54 1006.6
20260507164546 10 141 3.2 20.9 0.00 1.27 0.00 55 1006.7
20260507163043 10 63 3.2 22.5 0.00 1.52 0.00 54 1006.9
20260507161547 10 131 4.8 17.7 0.00 1.52 0.00 60 1007.0
20260507160040 10 98 0.0 22.5 0.00 1.52 0.00 63 1007.0
20260507154533 9 134 1.6 19.3 0.00 1.52 0.00 63 1007.3
20260507153035 9 94 1.6 20.9 0.00 1.75 0.00 67 1007.5
20260507151528 8 38 3.2 20.9 0.00 1.75 0.00 71 1007.3
20260507150023 7 84 0.0 1.6 0.00 1.75 0.00 81 1007.4
20260507144527 7 112 0.0 9.7 0.00 1.75 0.00 84 1007.3
20260507143020 7 96 0.0 4.8 0.00 1.91 0.00 88 1007.4
20260507141515 7 68 0.0 8.0 0.00 1.91 0.00 90 1007.5
20260507140011 6 120 0.0 3.2 0.00 1.91 0.00 94 1007.4
20260507134509 5 105 0.0 8.0 0.00 1.91 0.00 100 1007.6
20260507133007 5 75 0.0 0.0 0.00 2.13 0.00 100 1007.7
20260507131502 5 289 0.0 0.0 0.00 2.13 0.00 100 1007.6
20260507130002 5 286 0.0 0.0 0.00 2.13 0.00 100 1007.8
20260507124620 5 271 0.0 0.0 0.00 2.13 0.00 100 1007.7
20260507123109 5 269 0.0 0.0 0.00 2.18 0.00 100 1007.7
20260507121601 5 262 0.0 0.0 0.00 2.18 0.00 100 1007.7
20260507120052 5 276 0.0 0.0 0.00 2.18 0.00 100 1007.6
20260507114554 4 200 0.0 0.0 0.00 2.18 0.00 100 1007.5
20260507113049 4 277 0.0 0.0 0.00 2.18 0.00 100 1007.6
20260507111547 3 356 0.0 0.0 0.00 2.18 0.00 100 1007.4
20260507110044 3 297 0.0 0.0 0.00 2.18 0.00 100 1007.5
20260507104543 3 280 0.0 0.0 0.00 2.18 0.00 100 1007.6
20260507103040 3 280 0.0 0.0 0.00 2.18 0.00 100 1007.4
20260507101545 3 280 0.0 0.0 0.00 2.18 0.00 100 1007.4
20260507100048 3 280 0.0 0.0 0.00 2.18 0.00 100 1007.2
20260507094536 3 280 0.0 0.0 0.00 2.18 0.00 100 1007.5
20260507093033 3 269 0.0 0.0 0.00 2.21 2.18 100 1007.4
20260507091531 3 269 0.0 0.0 0.00 2.21 2.18 100 1007.1
20260507090031 3 264 0.0 0.0 0.00 2.21 2.18 100 1007.2
20260507084526 3 264 0.0 0.0 0.00 2.21 2.18 100 1007.3
20260507083029 3 264 0.0 0.0 0.00 2.24 2.18 100 1007.4
20260507081525 3 264 0.0 0.0 0.00 2.24 2.18 100 1007.2
20260507080055 3 70 0.0 0.0 0.00 2.24 2.18 100 1007.1
20260507074606 3 70 0.0 0.0 0.00 2.24 2.18 100 1007.2
20260507073059 3 70 0.0 0.0 0.00 2.34 2.18 100 1007.1
20260507071550 4 310 0.0 0.0 0.00 2.34 2.18 100 1007.1
20260507070050 4 293 0.0 0.0 0.00 2.34 2.18 100 1007.0
20260507064548 4 8 0.0 0.0 0.00 2.34 2.18 100 1007.1
20260507063049 4 265 0.0 0.0 0.00 2.44 2.18 100 1007.0
20260507061545 4 330 0.0 0.0 0.00 2.44 2.18 100 1007.3
20260507060043 4 103 0.0 0.0 0.00 2.44 2.18 100 1007.3
20260507054544 4 308 0.0 0.0 0.00 2.44 2.18 100 1006.7
20260507053039 4 200 0.0 0.0 0.00 2.51 2.18 100 1007.5
20260507051537 5 147 0.0 0.0 0.00 2.51 2.18 100 1007.3
20260507050038 5 147 0.0 0.0 0.00 2.51 2.18 100 1007.4
20260507044538 5 250 0.0 0.0 0.00 2.51 2.18 100 1007.7
20260507043030 5 87 0.0 0.0 0.00 2.92 2.18 100 1007.6
20260507041537 5 115 0.0 0.0 0.00 2.92 2.18 100 1007.4
20260507040029 5 102 0.0 0.0 0.00 2.92 2.18 100 1007.9
20260507034528 5 111 0.0 0.0 0.00 2.92 2.18 100 1007.8
20260507033028 5 111 0.0 0.0 0.03 2.92 2.18 100 1007.8
20260507031527 5 82 0.0 0.0 0.05 2.92 2.18 100 1007.5
20260507030024 6 81 0.0 0.0 0.10 2.92 2.18 100 1007.7
20260507024523 6 79 0.0 0.0 0.15 2.92 2.18 100 1007.6
20260507023019 6 90 0.0 0.0 0.13 2.90 2.16 100 1008.1
20260507021519 6 90 0.0 0.0 0.10 2.87 2.13 100 1008.2
20260507020017 6 90 0.0 0.0 0.10 2.84 2.08 100 1008.1
20260507014519 6 90 0.0 0.0 0.08 2.79 2.03 100 1008.1
20260507013021 6 104 0.0 0.0 0.10 2.79 2.03 100 1007.9
20260507011518 6 98 0.0 0.0 0.10 2.79 2.03 100 1007.5
20260507010014 6 98 0.0 0.0 0.05 2.74 1.98 100 1007.7
20260507004529 6 98 0.0 0.0 0.03 2.72 1.96 100 1007.5
20260507003010 6 98 0.0 0.0 0.00 2.69 1.93 100 1006.7
20260507001510 6 127 0.0 0.0 0.00 2.69 1.93 100 1006.6
20260507000013 6 107 0.0 0.0 0.00 2.69 1.93 99 1006.6
20260506234508 6 130 0.0 0.0 0.00 2.69 1.93 100 1006.5
20260506233037 6 107 0.0 0.0 0.00 2.69 1.93 100 1006.7
20260506231548 6 100 0.0 0.0 0.00 2.69 1.93 100 1006.5
20260506230049 6 114 0.0 0.0 0.00 2.69 1.93 100 1006.4